Leuchars, United Kingdom

12:09 AM BST on May 01, 2017 (GMT +0100)
Leuchars Air Base

Weather History for EGQL - September, 2012

Change the Weather History Date:

Saturday, September 15, 2012

  Actual Average Record
Temperature  
Mean Temperature 56 °F -  
Max Temperature 63 °F 56 °F 69 °F (1996)
Min Temperature 48 °F 44 °F 35 °F (2007)
Degree Days  
Heating Degree Days 10    
Growing Degree Days 6 (Base 50)    
Moisture  
Dew Point 46 °F    
Average Humidity 70    
Maximum Humidity 88    
Minimum Humidity 43    
Precipitation  
Precipitation 0.00 in - - ()
Sea Level Pressure  
Sea Level Pressure 29.79 in    
Wind  
Wind Speed 15 mph ()    
Max Wind Speed 32 mph    
Max Gust Speed -    
Visibility 8.2 miles    
Events      
Averages and records for this station are not official NWS values.
T = Trace of Precipitation, MM = Missing Value Source: Averaged Metar Reports

Daily Weather History Graph

Daily Weather History Graph

Search for Another Location

Airport or City:

Trip Planner

Search our weather history database for the weather conditions in past years. The results will help you decide how hot, cold, wet, or windy it might be!

Date:

Astronomy

Sep. 15, 2012 Rise Set
Actual Time 6:43 AM BST 7:28 PM BST
Civil Twilight 6:05 AM BST 8:06 PM BST
Nautical Twilight 5:19 AM BST 8:52 PM BST
Astronomical Twilight 4:29 AM BST 9:41 PM BST
Moon 5:59 AM BST (9/15) 6:42 PM BST (9/15)
Length of Visible Light 14h 01m
Length of Day
12h 45m
Waning Crescent, 1% of the Moon is Illuminated
Sep 15
Waning Crescent
Sep 16
New
Sep 22
First Quarter
Sep 30
Full
Oct 8
Last Quarter

Hourly Weather History & Observations

Time (BST) Temp. Dew Point Humidity Pressure Visibility Wind Dir Wind Speed Gust Speed Precip Events Conditions
12:50 AM 51 °F 44 °F 71% 29.83 in 19 mi West 11.5 mph - -   Clear
12:50 AM 51.8 °F 44.6 °F 76% 29.83 in - West 11.5 mph - N/A   Clear
1:50 AM 51.8 °F 42.8 °F 71% 29.80 in - West 16.1 mph - N/A   Clear
2:50 AM 48.2 °F 42.8 °F 82% 29.83 in - WSW 6.9 mph - N/A   Clear
3:50 AM 49 °F 44 °F 77% 29.82 in 25 mi WSW 15.0 mph - -   Clear
3:50 AM 50.0 °F 44.6 °F 82% 29.80 in - WSW 15.0 mph - N/A   Clear
4:50 AM 50.0 °F 44.6 °F 82% 29.80 in - WSW 17.3 mph - N/A   Clear
5:50 AM 50.0 °F 44.6 °F 82% 29.80 in 6.2 mi WSW 16.1 mph - N/A   Partly Cloudy
6:50 AM 49 °F 44 °F 76% 29.83 in 10 mi WSW 8.1 mph - -   Scattered Clouds
6:50 AM 48.2 °F 44.6 °F 87% 29.83 in 6.2 mi WSW 8.1 mph - N/A   Partly Cloudy
7:50 AM 51.8 °F 44.6 °F 76% 29.83 in 6.2 mi WSW 17.3 mph - N/A   Partly Cloudy
8:50 AM 55.4 °F 46.4 °F 72% 29.83 in 6.2 mi WSW 15.0 mph - N/A   Partly Cloudy
9:50 AM 58 °F 47 °F 57% 29.85 in 14 mi WSW 18.4 mph - -   Scattered Clouds
9:50 AM 57.2 °F 46.4 °F 67% 29.83 in 6.2 mi WSW 18.4 mph - N/A   Partly Cloudy
10:50 AM 59.0 °F 46.4 °F 63% 29.83 in 6.2 mi West 25.3 mph - N/A   Partly Cloudy
11:50 AM 60.8 °F 46.4 °F 59% 29.83 in 6.2 mi WSW 23.0 mph - N/A   Partly Cloudy
12:50 PM 63 °F 46 °F 43% 29.83 in 16 mi WSW 24.2 mph - -   Scattered Clouds
12:50 PM 62.6 °F 46.4 °F 55% 29.80 in 6.2 mi WSW 24.2 mph - N/A   Partly Cloudy
1:50 PM 62.6 °F 48.2 °F 59% 29.80 in 6.2 mi WSW 23.0 mph - N/A   Partly Cloudy
2:50 PM 60.8 °F 46.4 °F 59% 29.77 in 6.2 mi WSW 32.2 mph - N/A   Partly Cloudy
3:50 PM 60 °F 45 °F 47% 29.80 in 12 mi WSW 29.9 mph - -   Scattered Clouds
3:50 PM 60.8 °F 44.6 °F 55% 29.77 in 6.2 mi WSW 29.9 mph - N/A   Partly Cloudy
4:50 PM 59.0 °F 46.4 °F 63% 29.77 in 6.2 mi WSW 25.3 mph - N/A   Partly Cloudy
5:50 PM 59.0 °F 46.4 °F 63% 29.77 in 6.2 mi WSW 19.6 mph - N/A   Partly Cloudy
6:50 PM 57 °F 47 °F 62% 29.78 in 12 mi WSW 13.8 mph - -   Mostly Cloudy
6:50 PM 57.2 °F 48.2 °F 72% 29.77 in 6.2 mi WSW 13.8 mph - N/A   Mostly Cloudy
7:50 PM 55.4 °F 48.2 °F 77% 29.74 in 6.2 mi WSW 13.8 mph - N/A   Mostly Cloudy
8:50 PM 53.6 °F 50.0 °F 88% 29.74 in 6.2 mi WSW 15.0 mph - N/A   Mostly Cloudy
9:50 PM 53 °F 49 °F 80% 29.73 in 12 mi West 16.1 mph - -   Partly Cloudy
9:50 PM 53.6 °F 48.2 °F 82% 29.71 in 6.2 mi West 16.1 mph - N/A   Scattered Clouds
10:50 PM 53.6 °F 48.2 °F 82% 29.71 in 6.2 mi West 15.0 mph - N/A   Mostly Cloudy
11:50 PM 53.6 °F 48.2 °F 82% 29.71 in 6.2 mi WSW 12.7 mph - N/A   Mostly Cloudy